This is the latest recevied weather packets stored in our database for station/object EA3KZ-1. If no packets are shown the sender has not sent any weather packets the latest 10 day(s).
| Time | Temp. | Humidity | Pressure | Rain* | Wind** | Luminosity | Snow |
|---|---|---|---|---|---|---|---|
| 1777905042 | 16.67° C | 85% | 1007.1 hPa | 0.25 mm | - | - | - |
| 1777904439 | 16.67° C | 84% | 1007.2 hPa | 0.25 mm | - | - | - |
| 1777903837 | 17.22° C | 81% | 1007.3 hPa | 0 mm | - | - | - |
| 1777903234 | 17.22° C | 79% | 1007.4 hPa | 0 mm | - | - | - |
| 1777902631 | 17.22° C | 79% | 1007.3 hPa | 0 mm | - | - | - |
| 1777902029 | 17.22° C | 82% | 1007.3 hPa | 0 mm | - | - | - |
| 1777901426 | 17.22° C | 81% | 1007.2 hPa | 0 mm | - | - | - |
| 1777900824 | 17.22° C | 81% | 1007.2 hPa | 0 mm | - | - | - |
| 1777900221 | 18.33° C | 80% | 1007.1 hPa | 0 mm | - | - | - |
| 1777899619 | 17.78° C | 81% | 1006.9 hPa | 0 mm | - | - | - |
| 1777899016 | 18.89° C | 80% | 1007.1 hPa | 0 mm | - | - | - |
| 1777898474 | 18.89° C | 80% | 1007.1 hPa | 0 mm | - | - | - |
| 1777897871 | 18.33° C | 84% | 1007.1 hPa | 0 mm | - | - | - |
| 1777897268 | 18.89° C | 81% | 1006.9 hPa | 0 mm | - | - | - |
| 1777896665 | 19.44° C | 82% | 1006.9 hPa | 0 mm | - | - | - |
| 1777896063 | 18.89° C | 81% | 1007 hPa | 0 mm | - | - | - |
| 1777895460 | 18.89° C | 80% | 1007 hPa | 0 mm | - | - | - |
| 1777894857 | 19.44° C | 74% | 1007.4 hPa | 0 mm | - | - | - |
| 1777894255 | 19.44° C | 70% | 1007.1 hPa | 0 mm | - | - | - |
| 1777893652 | 19.44° C | 70% | 1007.2 hPa | 0 mm | - | - | - |
| 1777893050 | 20° C | 67% | 1007.3 hPa | 0 mm | - | - | - |
| 1777892447 | 20° C | 66% | 1007.5 hPa | 0 mm | - | - | - |
| 1777891845 | 20° C | 65% | 1007.5 hPa | 0 mm | - | - | - |
| 1777891242 | 20° C | 65% | 1007.6 hPa | 0 mm | - | - | - |
| 1777890639 | 20.56° C | 63% | 1007.6 hPa | 0 mm | - | - | - |
* Rain latest hour (hover to see other rain measurements)
** Current wind speed in m/s (hover to see current wind gust speed)